Location: Woodhurst
(52.3667°N, 0.0667°W)
Time: 06:04:50
(UTC+00:00)

USA 59 Rocket - Pass Details

Date: 19 May 2025
Orbit: 373 x 1695 km, 63.3° (Epoch: 18 June)

Event Time Altitude Azimuth Distance (km) Brightness Sun altitude
Exits shadow 22:09:51 15° 99° (E) 1,196 1.2 -14.0°
Drops below altitude 10° 22:10:52 10° 80° (E) 1,421 1.8 -14.1°
Sets 22:13:14 0° 58° (ENE) 2,245 3.0 -14.2°
